sat.trackr.live / text

‹ back to catalog

KUIPER-00268

NORAD 67790 · 2026-030AC

PAYLOAD ACTIVE UNKNOWN

§ Identity

Operator
Country
US
Launch date
2026-02-12
Launch site
FRGUI
Launch vehicle
Mass (kg)
RCS (m²)

External: N2YO · Heavens-Above · Gunter

§ Orbital elements

Epoch: 2026-09-20T20:54:25.775424Z

Period
97.30 min
Inclination
51.9043°
Eccentricity
0.0000783
Mean motion
14.79932362 rev/d
Perigee alt
629.0 km
Apogee alt
630.1 km
Semi-major
7,007.7 km
B*
2.8262e-4
RAAN
47.5746°
Arg perigee
132.0983°
Mean anomaly
228.0046°
Rev number
3,439

§ Raw data

KUIPER-002681 67790U 26030AC  26263.87113166  .00001934  00000+0  28262-3 0  99912 67790  51.9043  47.5746 0000783 132.0983 228.0046 14.79932362 34397

JSON: /api/v1/satellites/67790 · /tle

For live sub-satellite position, see the globe view (requires WebGL).

§ Visibility from observer

Set your observer location to see the next 7 days of passes ≥ 10°. The values pass through the URL so the page stays shareable.

No JS? Fill the form by hand. The geolocation button needs JavaScript.